#timestamp,LO_Frequency,Hit,StdDev 
1563411615.8,286047002.2,Y
1563411635.7,286047000.9,P
1563411655.5,286047000.4,N
1563411675.3,286047000.3,N
1563411695.2,286047000.9,N
1563411715.0,286046998.1,N
1563411715.9,286046998.1,N
1563411735.7,286046998.6,N
1563411755.6,286046996.9,N
1563411775.4,286046997.3,N
1563411795.3,286046997.2,N
1563411815.1,286046998.4,N
1563411816.0,286046998.4,N
1563411835.8,286046998.8,N
1563411855.7,286046999.6,N
1563411875.5,286046999.3,N
1563411895.4,286046995.0,Y
1563411915.2,286046999.3,P
1563411935.0,286046999.1,P
1563411935.9,286046999.1,P
1563411955.8,286046999.3,Y
1563411975.6,286047002.3,P
1563411995.5,286047000.4,N
1563412015.3,286046996.9,N
1563412035.1,286046998.6,N
1563412055.9,286047000.6,N
1563412075.7,286046998.7,N
1563412095.5,286046997.7,N
1563412115.4,286046998.0,N
1563412135.2,286046997.9,N
1563412155.1,286046997.8,N
1563412156.0,286046997.8,N
1563412175.8,286046995.8,N
1563412195.6,286046993.4,Y
1563412215.5,286046995.7,P
1563412235.3,286046993.9,P
1563412255.2,286046991.9,P
1563412275.9,286046991.9,Y
1563412295.7,286046999.1,P
1563412315.6,286046998.9,N
1563412335.4,286047000.4,N
1563412355.2,286047001.1,N
1563412375.1,286046999.4,N
1563412376.0,286046999.4,N
1563412395.8,286046998.4,N
1563412415.7,286046999.0,N
1563412435.5,286047001.2,N
1563412455.3,286047000.6,N
1563412475.2,286047001.2,N
1563412495.0,286046999.0,N
1563412495.9,286046999.0,N
1563412515.8,286046999.2,N
1563412535.6,286046998.9,N
1563412555.4,286046997.0,N
1563412575.3,286046999.3,N
1563412595.1,286046997.3,N
1563412615.9,286046999.5,N
1563412635.7,286046999.5,N
1563412655.5,286046998.1,N
1563412675.4,286047000.8,N
1563412695.2,286046998.2,N
1563412715.0,286047000.8,N
1563412715.9,286047000.8,N
1563412735.8,286046998.8,N
1563412755.6,286046998.3,N
1563412775.5,286047000.1,N
1563412795.3,286046999.8,N
1563412815.1,286047002.5,N
1563412835.9,286047002.8,N
1563412855.7,286047000.4,N
1563412875.5,286047000.6,N
1563412895.4,286047000.1,N
1563412915.2,286047001.4,N
1563412935.1,286047001.8,N
1563412936.0,286047001.8,N
1563412955.8,286047001.7,N
1563412975.6,286047002.8,N
1563412995.5,286047000.4,N
1563413015.3,286047002.8,N
1563413035.1,286047000.1,N
1563413055.9,286047001.0,N
1563413075.7,286047000.7,N
1563413095.6,286047000.7,N
1563413115.4,286047000.4,N
1563413135.2,286047000.1,N
1563413155.1,286047004.4,Y
1563413156.0,286047004.4,P
1563413175.8,286047001.9,N
1563413195.7,286047000.3,N
1563413215.5,286047000.2,N
1563413235.3,286046999.7,N
1563413255.2,286047002.8,N
1563413275.0,286047004.4,N
1563413275.9,286047004.4,N
1563413295.8,286047000.0,N
1563413315.6,286046999.7,N
1563413335.4,286047000.0,N
1563413355.3,286047000.1,N
1563413375.1,286046999.8,N
1563413395.8,286047000.6,N
1563413415.7,286047002.7,N
1563413435.5,286047000.0,N
1563413455.4,286046999.9,N
1563413475.2,286047004.4,N
1563413495.0,286047002.1,N
1563413495.9,286047002.1,N
1563413515.8,286047001.4,N
1563413535.6,286047003.5,N
1563413555.5,286047002.1,N
1563413575.3,286047003.6,N
1563413595.1,286047004.1,N
1563413615.9,286047002.4,N
1563413635.7,286047002.7,N
1563413655.5,286047002.0,N
1563413675.4,286047002.1,N
1563413695.2,286047002.0,N
1563413715.1,286047000.1,N
1563413716.0,286047000.1,N
1563413735.8,286047002.2,N
1563413755.6,286047000.2,N
1563413775.5,286047002.8,N
1563413795.3,286047004.1,N
1563413815.2,286047004.1,N
1563413835.9,286047001.7,N
1563413855.7,286047005.9,Y
1563413875.6,286047001.7,P
1563413895.4,286047001.4,P
1563413915.2,286047000.1,N
1563413935.1,286046999.7,N
1563413936.0,286046999.7,N
1563413955.8,286047002.5,N
1563413975.7,286047001.8,N
1563413995.5,286047001.7,N
1563414015.4,286047004.3,Y
1563414035.2,286047001.9,P
1563414055.0,286047003.9,P
1563414055.9,286047003.9,P
1563414075.8,286047004.4,Y
1563414095.5,286047000.0,P
1563414115.3,286047000.4,N
1563414135.1,286047000.1,N
1563414155.9,286046999.0,N
1563414175.7,286046998.4,N
1563414195.6,286046997.4,N
1563414215.4,286046997.7,N
1563414235.2,286046996.1,N
1563414255.1,286046995.8,N
1563414256.0,286046995.8,N
1563414275.8,286046996.2,N
1563414295.7,286046993.9,N
1563414315.5,286046996.3,N
1563414335.3,286046995.3,N
1563414355.2,286046997.4,N
1563414375.0,286046997.8,N
1563414375.9,286046997.8,N
1563414395.7,286046995.8,N
1563414415.6,286046995.9,N
1563414435.4,286046999.5,N
1563414455.3,286046997.4,N
1563414475.1,286046997.1,N
1563414495.9,286046996.7,N
1563414515.7,286046994.9,N
1563414535.6,286046999.4,N
1563414555.4,286046999.6,N
1563414575.2,286046995.6,N
1563414595.1,286046995.6,N
1563414596.0,286046995.6,N
1563414615.8,286046996.8,N
1563414635.6,286046995.8,N
1563414655.5,286046995.3,N
1563414675.3,286046995.4,Y
1563414695.2,286047001.0,P
1563414715.9,286046999.9,N
1563414735.7,286046998.7,N
1563414755.6,286047002.4,N
1563414775.4,286047001.7,N
1563414795.3,286047004.1,N
1563414815.1,286047004.5,N
1563414816.0,286047004.5,N
1563414835.8,286047007.3,N
1563414855.7,286047004.7,N
1563414875.5,286047005.2,N
1563414895.3,286047004.6,N
1563414915.2,286047006.0,N
1563414935.0,286047004.8,N
1563414935.9,286047004.8,N
1563414955.8,286047007.5,N
1563414975.6,286047006.9,N
1563414995.4,286047006.6,N
1563415015.3,286047006.3,N
1563415035.1,286047006.1,N
1563415055.9,286047007.6,N
1563415075.7,286047007.3,N
1563415095.5,286047007.6,N
1563415115.4,286047007.0,N
1563415135.2,286047007.1,N
1563415155.0,286047007.4,N
1563415156.0,286047007.4,N
1563415175.8,286047007.0,N
1563415195.6,286047005.1,N
